{"data":{"norad_id":67797,"intl_designator":"2026-032A","name":"STARLINK-36800","alt_names":[],"object_type":"PAYLOAD","status":"ACTIVE","operator":null,"country":"US","launch_date":"2026-02-15","launch_site_code":"AFWTR","launch_vehicle":null,"mission":null,"orbit_class":"UNKNOWN","rcs_meters":null,"size_class":null,"mass_kg":null,"dimensions":null,"purposes":["comms"],"wikipedia_slug":null,"has_3d_model":false,"image_url":null,"decayed_at":null,"tle_current":{"epoch":"2026-05-25T02:03:39.564576Z","epoch_age_seconds":61525,"freshness":"FRESH","line1":"1 67797U 26032A   26145.08587459  .00012708  00000+0  39521-3 0  9993","line2":"2 67797  97.2855 333.2559 0001601  88.3703 271.7724 15.33451934 16679","mean_motion":15.33451934,"eccentricity":0.0001601,"inclination_deg":97.2855,"raan_deg":333.2559,"arg_perigee_deg":88.3703,"mean_anomaly_deg":271.7724,"bstar":0.00039521,"rev_number":1667,"period_min":93.90578002949,"perigee_km":464.42687395739,"apogee_km":466.61821374333,"semimajor_km":6843.6595438504,"source":"CELESTRAK","updated_at":"2026-05-25T13:38:21.691663Z"}}}